Location: Pedholt
(56.0260°N, 10.2097°E)
Time: 06:17:26
(UTC+00:00)

USA 215 - Pass Details

Date: 14 July 2020
Orbit: 1102 x 1106 km, 123.0° (Epoch: 31 July)

Event Time Altitude Azimuth Distance (km) Brightness Sun altitude
Rises 01:33:03 0° 85° (E) 3,924 6.7 -7.8°
Reaches altitude 10° 01:35:31 10° 84° (E) 2,965 6.1 -7.6°
Maximum altitude 01:42:05 83° 358° (N) 1,118 3.4 -7.1°
Drops below altitude 10° 01:48:38 10° 272° (W) 2,964 5.2 -6.6°
Sets 01:51:07 0° 272° (W) 3,922 5.8 -6.4°
